RH
5 5 6 6 6 6 6 5 6 6 7 8 9 10 11 11 11 12 13 13 14 14 15 16 15 14 12 10 9 8 7 7 6 6 5 6 5 4 4 3 3 3
6 6 6 6 6 6 6 6 6 6 7 8 9 11 12 12 12 13 14 14 14 15 16 17 16 14 12 10 9 8 8 7 6 6 6 6 5 4 4 3 3 3
6 6 6 6 6 7 6 6 7 7 8 8 9 11 11 12 13 13 14 15 15 16 17 18 16 14 13 11 10 9 8 8 6 6 6 6 5 4 4 3 3 3
6 6 7 7 7 7 7 7 7 7 8 9 9 11 11 12 13 14 14 15 15 17 18 18 17 15 14 12 10 10 9 8 7 6 7 6 5 5 4 4 3 3
7 7 7 8 8 8 8 8 8 8 8 9 9 10 11 13 13 14 14 15 16 18 19 19 17 15 14 12 11 11 9 8 7 7 7 6 5 5 4 4 4 3
8 8 8 9 9 9 9 9 9 9 9 9 10 11 12 13 13 14 14 15 16 19 20 19 17 16 15 13 12 11 10 9 8 7 8 7 6 5 4 4 4 3
10 10 10 10 10 10 10 10 10 9 10 10 10 11 12 12 13 13 14 15 16 19 20 19 17 16 15 13 13 12 11 9 8 8 8 7 6 5 5 4 4 4
10 11 11 11 11 11 11 10 10 10 10 10 10 11 12 12 13 14 14 15 16 18 20 19 18 17 15 14 13 12 11 9 9 8 8 7 6 6 5 4 4 4
11 11 11 11 11 11 11 11 11 11 10 11 11 12 12 12 13 14 13 14 16 17 19 19 18 16 15 14 13 12 11 10 9 9 8 7 6 6 6 5 4 4
12 12 12 13 12 12 12 12 12 12 11 12 12 12 12 12 13 14 13 14 15 17 18 18 17 16 15 15 14 12 11 10 10 9 8 7 7 6 6 5 5 4
12 13 14 14 14 13 14 14 14 14 13 13 13 13 13 13 13 13 13 14 15 16 17 17 16 16 15 15 14 12 11 10 10 10 8 8 7 6 6 5 5 5
13 14 15 15 15 15 16 16 15 15 14 13 13 13 14 13 13 12 13 14 15 15 15 15 15 14 14 14 13 12 11 10 10 10 8 8 7 6 5 5 5 5
15 16 16 16 16 17 18 18 17 16 15 14 13 13 14 13 12 12 13 14 14 14 14 14 14 13 13 13 13 12 11 10 10 10 9 8 7 6 5 5 5 5
17 18 18 18 18 19 19 20 19 17 15 14 13 13 14 13 12 12 13 14 14 14 14 13 13 13 12 12 12 11 11 10 10 10 9 9 7 5 5 5 4 5
18 19 19 19 20 20 20 21 20 18 16 15 14 13 13 13 12 13 13 14 14 14 13 13 13 12 12 11 11 11 10 10 10 10 9 9 7 5 5 5 5 5
20 20 19 20 20 19 20 20 19 18 17 16 15 14 14 13 12 13 13 13 14 14 13 13 12 11 11 10 10 10 10 10 10 10 10 9 7 6 5 5 5 5
20 20 20 20 20 19 18 18 19 18 17 16 15 15 14 13 12 12 13 13 14 14 13 13 12 11 10 9 9 9 9 10 10 9 9 9 7 5 5 5 5 6
19 20 20 20 20 19 18 17 18 18 17 16 16 15 14 13 12 12 12 12 13 13 13 12 11 10 9 9 8 9 9 9 9 9 9 9 7 5 5 5 5 6
18 18 19 20 19 18 17 17 17 17 17 16 16 16 14 13 13 13 12 13 13 13 12 11 11 10 9 8 8 8 9 9 9 9 9 8 7 5 5 5 5 8
16 17 18 19 18 18 17 17 17 17 17 16 16 15 14 12 13 14 13 13 13 12 12 11 10 9 8 8 8 8 9 8 9 9 9 8 7 6 6 6 6 9
15 15 17 18 18 18 17 17 18 17 16 16 16 16 14 12 13 14 14 14 12 11 11 10 10 9 8 7 7 8 8 8 9 9 9 8 6 6 6 6 7 11
14 14 15 16 17 18 17 17 17 17 16 16 16 16 15 14 14 15 15 14 12 10 10 10 9 9 8 7 7 7 8 8 9 9 8 7 6 6 6 6 8 12
12 13 13 14 15 16 17 16 16 16 16 16 16 16 16 16 15 15 15 14 12 9 9 9 9 8 7 7 7 7 8 8 9 9 8 7 6 6 6 6 9 13
10 11 12 13 13 14 15 15 16 16 16 17 16 16 16 16 16 15 14 13 11 9 8 9 8 7 7 7 7 7 7 8 9 9 8 7 7 6 6 7 10 14
8 9 10 11 12 12 13 14 14 15 16 17 17 16 16 17 17 16 14 13 11 9 8 8 8 7 7 7 7 7 7 8 9 9 8 7 7 7 6 7 10 14
7 8 9 10 11 11 12 13 14 14 15 16 16 16 16 16 17 15 13 12 10 8 7 8 7 7 7 7 8 7 7 8 9 9 8 7 7 7 6 7 11 14
Wind_Speed
91 90 89 88 87 86 85 84 82 80 77 75 74 72 72 75 76 77 77 78 78 77 77 76 74 73 72 71 69 68 67 67 67 65 64 64 64 64 63 60 58 57
88 87 87 86 85 84 83 82 80 77 75 74 71 70 71 73 75 76 76 76 76 75 74 74 73 71 71 70 68 67 66 66 66 64 63 64 64 64 63 60 58 57
86 86 85 84 82 81 80 79 77 75 74 72 70 69 70 72 74 74 75 75 74 73 73 72 71 71 70 69 68 67 66 66 65 63 62 63 64 64 63 60 58 57
84 83 82 81 80 79 78 77 75 74 73 71 69 68 69 71 72 73 73 73 72 71 71 71 70 70 70 69 67 66 66 65 64 63 62 63 63 63 62 60 58 57
82 81 80 79 78 77 76 74 74 73 72 70 68 68 69 70 71 72 72 71 70 70 70 69 69 69 69 69 68 67 66 65 64 63 63 63 63 63 62 60 58 57
79 78 78 77 76 75 74 73 73 73 71 70 68 67 68 69 70 70 70 69 68 68 69 69 69 69 69 68 68 67 66 65 64 63 63 63 63 62 62 60 58 57
75 75 76 75 74 73 72 72 72 72 71 69 68 66 67 68 69 69 68 67 67 67 68 68 68 68 69 68 68 67 66 65 64 64 63 63 63 62 61 59 58 57
72 72 73 73 72 71 71 71 72 72 71 69 68 66 66 66 67 67 66 66 66 66 67 68 68 68 68 68 67 66 66 65 65 64 63 62 62 62 61 59 58 56
70 70 71 72 72 71 71 71 71 71 71 70 68 66 65 65 65 65 65 65 65 65 67 67 67 68 68 68 67 66 65 64 64 64 64 62 62 62 60 59 57 56
68 68 69 70 70 70 70 70 70 70 70 69 67 65 64 64 63 64 64 64 64 65 66 67 67 68 68 68 67 66 64 64 64 64 63 62 61 60 59 58 57 56
67 67 67 67 68 69 69 70 69 69 69 68 66 65 64 63 63 63 63 63 63 64 65 66 67 67 68 67 66 65 63 63 63 63 63 62 61 59 58 57 56 55
65 65 65 65 66 66 68 68 67 67 67 66 65 63 63 64 63 61 61 61 63 64 64 65 66 66 67 67 66 65 63 62 62 63 63 62 60 58 56 55 55 54
62 63 63 63 63 63 65 65 65 64 64 65 63 62 62 63 63 61 60 61 62 63 64 64 65 66 66 65 65 64 62 61 61 62 62 61 60 57 55 53 53 53
59 59 59 59 59 60 61 62 62 62 62 63 62 61 61 62 62 61 60 61 61 63 64 64 64 65 64 64 64 63 61 60 60 61 61 61 60 57 54 53 51 52
56 56 55 55 56 58 58 58 59 59 61 62 61 60 61 61 61 61 60 61 61 62 63 64 64 64 64 63 62 61 60 58 58 59 60 60 59 57 54 52 51 51
53 53 52 52 54 56 57 56 56 57 60 61 60 60 61 60 59 60 60 60 61 61 63 63 63 63 63 62 61 59 58 57 57 57 58 58 58 56 54 52 51 51
50 51 51 51 53 54 56 56 55 56 58 59 59 59 61 60 59 58 59 59 60 61 62 63 63 63 63 61 59 58 56 56 55 55 55 56 56 54 53 52 51 50
48 49 49 51 53 54 55 56 55 55 57 58 57 59 61 61 59 58 58 58 59 60 61 62 62 63 62 60 58 56 54 54 53 53 53 54 53 52 52 51 50 50
47 47 48 50 53 54 55 55 55 55 56 56 57 58 61 61 60 60 59 58 58 59 60 61 62 62 62 60 57 55 53 52 52 51 51 52 51 50 50 49 49 49
46 46 47 50 52 54 54 54 55 55 55 55 57 59 61 60 59 60 60 59 58 57 59 60 61 61 61 59 56 54 51 50 50 49 49 50 49 49 48 48 48 48
45 45 46 48 51 53 54 53 53 54 55 55 56 59 61 60 59 59 60 61 59 57 58 59 60 60 60 57 54 52 50 49 48 47 48 48 48 47 47 47 47 47
44 45 46 47 49 52 53 52 52 52 54 55 55 57 60 60 59 59 60 61 60 58 57 58 59 59 58 55 52 50 48 47 46 45 46 46 46 46 45 45 45 46
44 45 46 47 49 50 52 52 51 51 52 54 55 56 57 58 58 59 59 60 60 58 56 56 57 57 55 53 50 49 47 46 44 44 45 45 45 45 44 43 43 44
44 45 46 47 48 49 50 51 51 51 50 52 54 56 56 57 58 59 59 60 61 59 56 56 56 55 53 51 49 48 47 44 43 44 44 44 44 43 43 42 42 42
45 45 46 47 47 48 49 49 50 50 50 50 52 54 55 56 58 59 60 60 60 59 57 55 55 53 51 50 48 47 45 43 42 43 43 44 44 43 42 41 41 41
46 46 46 47 47 47 47 48 49 50 49 49 50 52 54 55 57 58 60 59 59 59 56 54 53 52 49 48 47 47 44 42 42 42 43 43 43 42 41 41 40 40
Wind_Direction
300 300 301 301 302 302 303 304 305 306 307 307 307 307 307 306 307 307 307 308 308 309 309 310 311 312 311 311 312 314 315 315 315 315 315 315 316 317 318 318 318 316
300 300 300 301 302 302 303 303 305 306 306 306 307 307 307 306 307 306 307 307 308 309 310 310 312 312 312 312 313 315 316 316 316 316 316 317 318 318 318 318 318 317
299 300 300 300 301 302 302 303 304 305 305 306 307 308 307 306 306 305 306 307 308 310 311 311 312 313 312 313 315 316 317 317 316 317 317 318 319 319 318 319 319 318
298 299 299 300 301 301 302 303 304 304 305 306 308 308 306 305 305 305 306 307 309 311 311 312 313 313 313 314 316 317 318 318 317 318 319 319 319 319 318 319 319 319
298 299 299 300 300 301 302 302 303 304 305 306 307 307 305 304 304 304 306 308 310 311 312 313 313 313 313 314 316 318 318 318 318 319 320 320 320 319 319 320 321 320
298 299 299 299 300 300 301 302 303 303 304 306 306 306 304 303 303 305 307 309 310 312 312 313 313 313 314 315 316 318 318 319 319 320 321 321 320 319 319 321 321 321
298 298 298 298 299 300 301 302 302 302 303 304 305 304 303 303 304 305 307 309 310 312 312 312 313 313 314 315 316 317 318 319 319 320 321 321 320 319 320 322 322 321
297 297 297 298 298 299 300 300 300 301 302 303 304 304 303 303 305 306 307 309 311 311 311 312 312 313 313 314 315 317 318 319 320 321 321 321 320 320 321 322 323 322
296 296 296 297 298 298 299 299 299 300 302 303 303 303 303 304 306 307 308 309 310 310 310 311 312 312 313 314 315 316 318 319 320 321 321 321 320 320 321 323 323 322
296 296 296 297 297 297 298 298 299 300 301 303 303 303 304 305 306 307 308 310 310 309 309 310 311 312 312 313 314 316 318 319 320 320 320 320 320 320 322 323 323 323
296 296 296 296 296 297 297 298 299 300 302 303 304 304 305 306 306 308 309 309 309 308 309 310 310 311 312 312 314 316 318 320 320 320 319 319 319 320 322 323 324 324
295 295 295 295 296 297 297 298 299 301 303 304 305 306 306 306 307 308 309 308 308 308 308 309 310 310 311 312 314 316 318 319 320 319 319 319 319 320 322 324 324 323
295 295 295 295 295 296 296 298 300 302 304 305 306 307 307 306 308 309 308 308 308 308 308 309 309 310 311 312 314 316 318 319 319 318 318 318 318 320 322 324 324 323
294 293 294 294 294 295 296 299 301 303 304 305 306 307 306 307 309 309 309 308 308 308 308 309 309 310 311 313 314 316 317 318 318 318 318 318 318 320 323 324 325 324
292 291 292 292 292 294 296 298 301 303 303 304 305 306 306 307 309 309 309 309 309 308 308 309 309 311 312 313 315 316 316 318 318 318 318 318 318 320 323 325 326 326
290 290 290 290 290 292 295 297 300 301 302 303 305 305 305 306 308 309 309 309 309 309 308 309 310 311 312 314 315 316 316 318 318 318 318 317 318 321 323 325 326 326
288 288 289 289 290 291 294 296 298 299 300 301 303 304 304 305 307 308 308 309 309 309 309 309 310 311 312 314 315 316 317 318 318 318 317 316 318 321 324 325 326 327
286 287 288 288 289 291 292 294 296 297 298 300 302 302 303 305 307 307 308 309 309 309 309 309 310 311 312 313 315 317 318 318 318 318 317 316 318 322 324 325 326 326
284 285 286 287 288 289 291 293 294 295 297 298 300 300 301 304 307 307 308 309 309 309 309 309 309 310 311 313 316 318 318 318 317 317 316 316 319 322 324 325 326 327
281 283 284 286 287 288 289 291 292 294 296 297 299 300 301 304 306 307 308 308 308 309 309 308 309 309 311 314 317 318 318 317 317 317 316 317 320 323 325 326 327 328
279 279 281 283 284 286 287 288 290 292 295 296 298 299 301 303 305 306 306 307 307 308 308 308 308 309 311 314 317 317 317 317 316 316 316 317 320 323 325 326 327 328
278 278 279 280 281 283 285 287 289 291 293 295 296 297 299 301 303 304 305 305 306 307 307 307 307 309 311 314 317 317 316 316 316 316 316 318 321 323 325 327 327 327
277 277 277 277 278 280 283 285 287 289 291 293 294 296 298 300 301 302 303 303 304 306 307 307 307 309 312 314 316 316 315 316 316 316 316 318 321 323 325 326 328 327
272 274 275 275 275 277 280 283 285 286 288 290 292 294 297 298 299 300 302 303 304 306 307 307 308 310 313 315 316 315 315 316 317 316 316 319 321 323 324 326 327 327
270 271 272 273 273 275 277 280 282 285 287 289 291 293 295 297 298 299 301 302 303 306 307 307 308 310 313 314 315 314 315 316 316 315 317 318 320 322 324 326 327 326
269 269 270 271 272 274 276 278 281 283 285 287 289 291 293 295 296 297 299 300 303 305 306 307 309 310 313 314 313 312 314 316 315 315 317 318 320 322 324 325 326 325